Regional Weather Roundup
Issued by NWS State College, PA

Home | Current Version | Previous Version | Graphics & Text | Print | Product List | Glossary Off
Versions: 1 2 3 4 5 6 7 8 9 10 11 12 13 14 15 16 17 18 19 20 21 22 23 24 25 26 27 28 29 30 31 32 33 34 35 36 37 38 39 40 41 42 43 44 45 46 47 48 49 50

000
ASUS41 KCTP 091903
RWRCTP

REGIONAL WEATHER ROUNDUP
NATIONAL WEATHER SERVICE STATE COLLEGE PA
300 PM EDT WED JUL 09 2014

Note: "fair" indicates few or no clouds below 12,000 feet with no
significant weather and/or obstructions to visibility.

* = STATION THAT DOES NOT REPORT PRECIPITATION /E.G. RAIN...SNOW...ETC/
    THUNDER OR FOG.

PAZ002>004-007>009-013>016-020>023-029>032-092000-
WESTERN PENNSYLVANIA

CITY           SKY/WX    TMP DP  RH WIND       PRES   REMARKS
ERIE           PTSUNNY   72  60  66 NW10      29.93R
MEADVILLE      PTSUNNY   72  62  71 W9G16     29.93R
FRANKLIN*      PTSUNNY   73  57  56 W7        29.94R
NEW CASTLE     NOT AVBL
BEAVER COUNTY  PTSUNNY   75  57  53 W7        29.93S
BUTLER*        MOSUNNY   81  61  50 W9        29.94S
PITTSBURGH INT MOSUNNY   78  60  53 W9        29.92S
PITTSBURGH     PTSUNNY   79  57  46 W12G18    29.92R
INDIANA*       MOSUNNY   81  59  47 W13G20    29.95S
LATROBE        PTSUNNY   81  61  50 SW12      29.93F
WASHINGTON CO* MOSUNNY   81  61  50 W9        29.94S
$$

PAZ004>006-010>012-017>019-024>028-033>037-041-042-045-046-049>053-092000-
CENTRAL PENNSYLVANIA

CITY           SKY/WX    TMP DP  RH WIND       PRES   REMARKS
BRADFORD       CLOUDY    69  55  60 W15       29.94R
DUBOIS         PTSUNNY   77  61  57 SW12      29.92S
CLEARFIELD     CLOUDY    77  58  51 VRB7G20   29.91S
JOHNSTOWN      PTSUNNY   77  55  46 W16G22    29.96S
ALTOONA        MOSUNNY   79  61  53 W9        29.93S
STATE COLLEGE  PTSUNNY   81  61  50 SW13G20   29.90R
WILLIAMSPORT   MOSUNNY   84  59  42 SW13G18   29.84S
SELINSGROVE    SUNNY     85  64  49 SW8       29.86F
FT INDIANTOWN  SUNNY     88  62  41 SW12      29.86F
CAPITAL CITY   MOSUNNY   87  61  41 SW8G22    29.86F
HARRISBURG     MOSUNNY   88  62  41 W12       29.85F
YORK           PTSUNNY   82  66  58 S9G17     29.89S
$$

PAZ038>040-043-044-047-048-054-055-060>062-067>071-092000-
EASTERN PENNSYLVANIA

CITY           SKY/WX    TMP DP  RH WIND       PRES   REMARKS
SCRANTON       MOSUNNY   79  62  56 E3        29.88R
MOUNT POCONO   CLOUDY    75  64  68 SW14      29.93F
ALLENTOWN      CLOUDY    82  62  50 W15       29.88S
QUAKERTOWN*    PTCLDY    86  66  51 S13       29.89F
READING        MOSUNNY   86  68  54 S9        29.85F
LANCASTER      MOSUNNY   85  65  51 SW14      29.87F
COATESVILLE    PTCLDY    81  66  61 S6        29.91F
POTTSTOWN      MOSUNNY   85  65  51 S13G21    29.89F
BLUE BELL      MOSUNNY   88  66  48 SW12      29.88F
DOYLESTOWN     MOSUNNY   85  66  53 SW10      29.88F
WILLOW GROVE   NOT AVBL
NORTH PHILA    CLOUDY    87  63  44 SW13G20   29.89F
PHILADELPHIA   PTSUNNY   88  64  44 SW14G25   29.89F
$$



USA.gov is the U.S. government's official web portal to all federal, state and local government web resources and services.